Weather History for Rockland, ME

Change the Weather History Date:

Friday, October 8, 2010

  Actual Average Record
Temperature  
Mean Temperature 55 °F -  
Max Temperature 64 °F 56 °F 78 °F (2011)
Min Temperature 46 °F 41 °F 28 °F (1999)
Degree Days  
Heating Degree Days 10    
Growing Degree Days 5 (Base 50)    
Moisture  
Dew Point 40 °F    
Average Humidity 60    
Maximum Humidity 81    
Minimum Humidity 40    
Precipitation  
Precipitation 0.00 in - - ()
Sea Level Pressure  
Sea Level Pressure 29.63 in    
Wind  
Wind Speed 9 mph (West)    
Max Wind Speed 24 mph    
Max Gust Speed 36 mph    
Visibility 10 miles    
Events      
Averages and records for this station are not official NWS values.
T = Trace of Precipitation, MM = Missing Value Source: NWS Daily Summary

Daily Weather History Graph

Daily Weather History Graph

Search for Another Location

Airport:

Trip Planner

Search our weather history database for the weather conditions in past years. The results will help you decide how hot, cold, wet, or windy it might be!

Date:

Astronomy

Oct. 08, 2010 Rise Set
Actual Time 6:42 AM EDT 6:04 PM EDT
Civil Twilight 6:13 AM EDT 6:33 PM EDT
Nautical Twilight 5:40 AM EDT 7:06 PM EDT
Astronomical Twilight 5:06 AM EDT 7:40 PM EDT
Moon 7:49 AM EDT (10/8) 6:10 PM EDT (10/8)
Length of Visible Light 12h 20m
Length of Day
11h 22m
New Moon, 1% of the Moon is Illuminated
Oct 8
New Moon
Oct 14
First Quarter
Oct 22
Full
Oct 30
Last Quarter
Nov 6
New

Hourly Weather History & Observations

Time (EDT) Temp. Windchill Dew Point Humidity Pressure Visibility Wind Dir Wind Speed Gust Speed Precip Events Conditions
12:15 AM 46.4 °F 42.9 °F 41.0 °F 81% 29.63 in 10.0 mi WSW 6.9 mph - N/A   Clear
12:35 AM 48.2 °F - 39.2 °F 71% 29.63 in 10.0 mi WSW 5.8 mph - N/A   Clear
12:55 AM 46.4 °F 44.3 °F 39.2 °F 76% 29.63 in 10.0 mi WSW 4.6 mph - N/A   Partly Cloudy
1:15 AM 46.4 °F 43.5 °F 39.2 °F 76% 29.64 in 10.0 mi SW 5.8 mph - N/A   Clear
1:35 AM 46.4 °F 43.5 °F 39.2 °F 76% 29.64 in 10.0 mi WSW 5.8 mph - N/A   Clear
1:55 AM 46.4 °F 44.3 °F 39.2 °F 76% 29.63 in 10.0 mi WSW 4.6 mph - N/A   Clear
2:15 AM 46.4 °F 42.4 °F 37.4 °F 71% 29.63 in 10.0 mi West 8.1 mph - N/A   Clear
2:35 AM 46.4 °F 42.4 °F 39.2 °F 76% 29.64 in 10.0 mi WSW 8.1 mph - N/A   Clear
2:55 AM 48.2 °F - 39.2 °F 71% 29.64 in 10.0 mi West 8.1 mph - N/A   Clear
3:15 AM 48.2 °F - 39.2 °F 71% 29.64 in 10.0 mi WSW 8.1 mph - N/A   Clear
3:35 AM 48.2 °F - 39.2 °F 71% 29.63 in 10.0 mi WSW 5.8 mph - N/A   Clear
3:55 AM 48.2 °F - 37.4 °F 66% 29.63 in 10.0 mi WSW 5.8 mph - N/A   Clear
4:15 AM 46.4 °F 43.5 °F 37.4 °F 71% 29.64 in 10.0 mi WSW 5.8 mph - N/A   Clear
4:35 AM 46.4 °F 44.3 °F 37.4 °F 71% 29.64 in 10.0 mi West 4.6 mph - N/A   Clear
4:55 AM 46.4 °F 42.9 °F 37.4 °F 71% 29.65 in 10.0 mi WSW 6.9 mph - N/A   Clear
5:15 AM 48.2 °F - 37.4 °F 66% 29.65 in 10.0 mi West 9.2 mph - N/A   Clear
5:35 AM 48.2 °F - 37.4 °F 66% 29.66 in 10.0 mi West 9.2 mph - N/A   Clear
5:55 AM 48.2 °F - 37.4 °F 66% 29.66 in 10.0 mi WSW 8.1 mph - N/A   Clear
6:15 AM 48.2 °F - 37.4 °F 66% 29.67 in 10.0 mi WSW 5.8 mph - N/A   Clear
6:35 AM 46.4 °F 43.5 °F 37.4 °F 71% 29.67 in 10.0 mi WSW 5.8 mph - N/A   Clear
6:55 AM 48.2 °F - 37.4 °F 66% 29.66 in 10.0 mi WSW 4.6 mph - N/A   Clear
7:15 AM 48.2 °F - 37.4 °F 66% 29.67 in 10.0 mi WSW 9.2 mph - N/A   Clear
7:35 AM 48.2 °F - 39.2 °F 71% 29.67 in 10.0 mi WSW 6.9 mph - N/A   Clear
7:55 AM 51.8 °F - 39.2 °F 62% 29.68 in 10.0 mi WSW 8.1 mph - N/A   Clear
8:15 AM 53.6 °F - 39.2 °F 58% 29.68 in 10.0 mi WSW 11.5 mph 20.7 mph N/A   Clear
8:35 AM 53.6 °F - 37.4 °F 54% 29.68 in 10.0 mi West 12.7 mph - N/A   Clear
8:55 AM 53.6 °F - 37.4 °F 54% 29.67 in 10.0 mi WSW 11.5 mph - N/A   Clear
9:15 AM 53.6 °F - 39.2 °F 58% 29.67 in 10.0 mi West 10.4 mph - N/A   Clear
9:35 AM 55.4 °F - 39.2 °F 54% 29.66 in 10.0 mi WSW 12.7 mph 18.4 mph N/A   Clear
9:55 AM 57.2 °F - 39.2 °F 51% 29.66 in 10.0 mi West 13.8 mph - N/A   Clear
10:15 AM 57.2 °F - 39.2 °F 51% 29.66 in 10.0 mi West 18.4 mph 24.2 mph N/A   Clear
10:35 AM 59.0 °F - 39.2 °F 48% 29.65 in 10.0 mi WSW 16.1 mph 26.5 mph N/A   Clear
10:55 AM 60.8 °F - 42.8 °F 52% 29.64 in 10.0 mi WSW 12.7 mph 16.1 mph N/A   Clear
11:15 AM 60.8 °F - 42.8 °F 52% 29.64 in 10.0 mi WSW 16.1 mph 21.9 mph N/A   Clear
11:35 AM 60.8 °F - 42.8 °F 52% 29.63 in 10.0 mi West 16.1 mph 23.0 mph N/A   Partly Cloudy
11:55 AM 62.6 °F - 41.0 °F 45% 29.62 in 10.0 mi West 19.6 mph 25.3 mph N/A   Clear
12:15 PM 62.6 °F - 41.0 °F 45% 29.61 in 10.0 mi WNW 21.9 mph 28.8 mph N/A   Partly Cloudy
12:35 PM 64.4 °F - 41.0 °F 42% 29.60 in 10.0 mi West 24.2 mph 35.7 mph N/A   Mostly Cloudy
12:55 PM 64.4 °F - 41.0 °F 42% 29.59 in 10.0 mi West 16.1 mph - N/A   Mostly Cloudy
1:15 PM 64.4 °F - 39.2 °F 40% 29.58 in 10.0 mi West 19.6 mph 27.6 mph N/A   Partly Cloudy
1:35 PM 64.4 °F - 39.2 °F 40% 29.59 in 10.0 mi West 17.3 mph 29.9 mph N/A   Mostly Cloudy
1:55 PM 62.6 °F - 39.2 °F 42% 29.58 in 10.0 mi WNW 15.0 mph 26.5 mph N/A   Overcast
2:35 PM 60.8 °F - 44.6 °F 55% 29.58 in 10.0 mi SW 11.5 mph 16.1 mph N/A   Overcast
2:55 PM 60.8 °F - 44.6 °F 55% 29.58 in 10.0 mi WSW 15.0 mph 27.6 mph N/A   Overcast
3:15 PM 60.8 °F - 42.8 °F 52% 29.58 in 10.0 mi West 15.0 mph 25.3 mph N/A   Overcast
3:35 PM 60.8 °F - 42.8 °F 52% 29.59 in 10.0 mi West 15.0 mph 18.4 mph N/A   Overcast
3:55 PM 60.8 °F - 42.8 °F 52% 29.59 in 10.0 mi West 13.8 mph 18.4 mph N/A   Overcast
4:15 PM 60.8 °F - 42.8 °F 52% 29.59 in 10.0 mi West 11.5 mph - N/A   Overcast
4:35 PM 59.0 °F - 42.8 °F 55% 29.61 in 10.0 mi West 10.4 mph - N/A   Overcast
4:55 PM 59.0 °F - 42.8 °F 55% 29.61 in 10.0 mi West 8.1 mph - N/A   Overcast
5:15 PM 59.0 °F - 42.8 °F 55% 29.62 in 10.0 mi WNW 12.7 mph 16.1 mph N/A   Overcast
5:35 PM 59.0 °F - 42.8 °F 55% 29.62 in 10.0 mi West 13.8 mph 21.9 mph N/A   Overcast
5:55 PM 59.0 °F - 42.8 °F 55% 29.63 in 10.0 mi WNW 16.1 mph 21.9 mph N/A   Overcast
6:15 PM 57.2 °F - 42.8 °F 59% 29.63 in 10.0 mi West 12.7 mph 26.5 mph N/A   Overcast
6:35 PM 57.2 °F - 42.8 °F 59% 29.64 in 10.0 mi West 15.0 mph - N/A   Mostly Cloudy
6:55 PM 55.4 °F - 42.8 °F 63% 29.65 in 10.0 mi WNW 9.2 mph - N/A   Scattered Clouds
7:15 PM 55.4 °F - 42.8 °F 63% 29.65 in 10.0 mi West 10.4 mph - N/A   Mostly Cloudy
7:35 PM 55.4 °F - 44.6 °F 67% 29.65 in 10.0 mi West 9.2 mph - N/A   Overcast
7:55 PM 55.4 °F - 44.6 °F 67% 29.66 in 10.0 mi West 8.1 mph - N/A   Overcast
8:15 PM 55.4 °F - 44.6 °F 67% 29.67 in 10.0 mi West 9.2 mph - N/A   Overcast
8:35 PM 55.4 °F - 44.6 °F 67% 29.66 in 10.0 mi West 9.2 mph - N/A   Overcast
8:55 PM 55.4 °F - 44.6 °F 67% 29.67 in 10.0 mi West 6.9 mph - N/A   Overcast
9:15 PM 53.6 °F - 44.6 °F 72% 29.67 in 10.0 mi West 9.2 mph - N/A   Mostly Cloudy
9:35 PM 53.6 °F - 44.6 °F 72% 29.67 in 10.0 mi WNW 6.9 mph - N/A   Mostly Cloudy
9:55 PM 53.6 °F - 42.8 °F 67% 29.67 in 10.0 mi West 5.8 mph - N/A   Scattered Clouds
10:15 PM 50.0 °F - 42.8 °F 76% 29.68 in 10.0 mi West 6.9 mph - N/A   Clear
10:35 PM 51.8 °F - 44.6 °F 76% 29.68 in 10.0 mi WNW 4.6 mph - N/A   Clear
10:55 PM 48.2 °F - 42.8 °F 82% 29.68 in 10.0 mi WNW 3.5 mph - N/A   Clear
11:15 PM 46.4 °F 44.3 °F 42.8 °F 87% 29.68 in 10.0 mi West 4.6 mph - N/A   Clear
11:35 PM 46.4 °F 44.3 °F 42.8 °F 87% 29.69 in 10.0 mi WSW 4.6 mph - N/A   Clear
11:55 PM 46.4 °F 43.5 °F 42.8 °F 87% 29.69 in 10.0 mi West 5.8 mph - N/A   Clear